{"data":{"norad_id":52763,"intl_designator":"2022-057AH","name":"SHERPA-AC1","alt_names":[],"object_type":"PAYLOAD","status":"ACTIVE","operator":null,"country":"US","launch_date":"2022-05-25","launch_site_code":"AFETR","launch_vehicle":null,"mission":null,"orbit_class":"UNKNOWN","rcs_meters":null,"size_class":null,"mass_kg":null,"dimensions":null,"purposes":[],"wikipedia_slug":null,"has_3d_model":false,"image_url":null,"decayed_at":null,"tle_current":{"epoch":"2026-05-25T03:16:58.770048Z","epoch_age_seconds":56607,"freshness":"FRESH","line1":"1 52763U 22057AH  26145.13679132  .00007412  00000+0  21449-3 0  9995","line2":"2 52763  97.6657 293.4132 0008113 165.0481 195.1003 15.35887739222165","mean_motion":15.35887739,"eccentricity":0.0008113,"inclination_deg":97.6657,"raan_deg":293.4132,"arg_perigee_deg":165.0481,"mean_anomaly_deg":195.1003,"bstar":0.00021449,"rev_number":22216,"period_min":93.756852368492,"perigee_km":452.73854701646,"apogee_km":463.83132525003,"semimajor_km":6836.4219361332,"source":"CELESTRAK","updated_at":"2026-05-25T13:37:57.887574Z"}}}